Location: L�Ave Maria
(50.7161°N, 1.5911°E)
Time: 13:21:16
(UTC+00:00)

Cosmos 1825 - Pass Details

Date: 10 July 2020
Orbit: 502 x 508 km, 82.5° (Epoch: 06 August)

Event Time Altitude Azimuth Distance (km) Brightness Sun altitude
Exits shadow 22:01:43 21° 160° (SSE) 1,190 3.4 -12.7°
Maximum altitude 22:03:57 48° 95° (E) 679 2.5 -12.9°
Drops below altitude 10° 22:07:38 10° 21° (NNE) 1,740 5.5 -13.2°
Sets 22:09:49 0° 15° (NNE) 2,631 6.6 -13.3°
